User: anonymous
Location: SAPM � Hemmingford
(45.0500°N, 73.5833°W)
Time: 00:20:12
(UTC-04:00)
Language:

Cosmos 1603 - Orbit

View from above orbital plane
View from above orbital plane
View from above satellite
View from above satellite

Ground track
Ground track

The orbit data is extracted from the following two-line orbital elements,

1 15333U 84106A   14292.53488823  .00000400  00000-0  23503-3 0  1108
2 15333 071.0267 326.8424 0021542 248.7510 273.8748 14.13949052550917
Epoch (UTC): 19 October 2014 12:50:14
Eccentricity: 0.0021542
inclination: 71.0267°
perigee height: 830 km
apogee height: 861 km
right ascension of ascending node: 326.8424°
argument of perigee: 248.7510°
revolutions per day: 14.13949052
mean anomaly at epoch: 273.8748°
orbit number at epoch: 55091

The dashed part of the orbit path shows where the satellite is in the earth's shadow,  

DLR